User: anonymous   Login
Location: Unspecified
(0.0000°N, 0.0000°E)
Time: 13:09:10
(UTC+00:00)
Language:

N. Korean satellite - Orbit

View from above orbital plane
View from above orbital plane
View from above satellite
View from above satellite

Ground track
Ground track

The orbit data is extracted from the following two-line orbital elements,

1 39026U 12072A   15111.13539538  .00011741  00000-0  53964-3 0  9992
2 39026 097.2881 144.6353 0048762 076.2650 284.4006 15.19432148130046
Epoch (UTC): 21 April 2015 03:14:58
Eccentricity: 0.0048762
inclination: 97.2881°
perigee height: 474 km
apogee height: 541 km
right ascension of ascending node: 144.6353°
argument of perigee: 76.2650°
revolutions per day: 15.19432148
mean anomaly at epoch: 284.4006°
orbit number at epoch: 13004

The dashed part of the orbit path shows where the satellite is in the earth's shadow,  

DLR